Year,Month,Day,Hour,Minute,Value (Times are PST for temperature in C)
2019,04,24,00,00,6.30
2019,04,24,00,01,6.30
2019,04,24,00,02,6.30
2019,04,24,00,03,6.20
2019,04,24,00,04,6.20
2019,04,24,00,05,6.20
2019,04,24,00,06,6.20
2019,04,24,00,07,6.20
2019,04,24,00,08,6.20
2019,04,24,00,09,6.20
2019,04,24,00,10,6.20
2019,04,24,00,11,6.20
2019,04,24,00,12,6.20
2019,04,24,00,13,6.20
2019,04,24,00,14,6.10
2019,04,24,00,15,6.10
2019,04,24,00,16,6.10
2019,04,24,00,17,6.10
2019,04,24,00,18,6.10
2019,04,24,00,19,6.10
2019,04,24,00,20,6.10
2019,04,24,00,21,6.10
2019,04,24,00,22,6.10
2019,04,24,00,23,6.00
2019,04,24,00,24,6.00
2019,04,24,00,25,6.00
2019,04,24,00,26,5.90
2019,04,24,00,27,5.90
2019,04,24,00,28,5.90
2019,04,24,00,29,5.90
2019,04,24,00,30,5.80
2019,04,24,00,31,5.80
2019,04,24,00,32,5.80
2019,04,24,00,33,5.80
2019,04,24,00,34,5.80
2019,04,24,00,35,5.80
2019,04,24,00,36,5.80
2019,04,24,00,37,5.80
2019,04,24,00,38,5.70
2019,04,24,00,39,5.70
2019,04,24,00,40,5.70
2019,04,24,00,41,5.70
2019,04,24,00,42,5.70
2019,04,24,00,43,5.70
2019,04,24,00,44,5.70
2019,04,24,00,45,5.70
2019,04,24,00,46,5.70
2019,04,24,00,47,5.70
2019,04,24,00,48,5.70
2019,04,24,00,49,5.60
2019,04,24,00,50,5.60
2019,04,24,00,51,5.50
2019,04,24,00,52,5.50
2019,04,24,00,53,5.40
2019,04,24,00,54,5.40
2019,04,24,00,55,5.30
2019,04,24,00,56,5.30
2019,04,24,00,57,5.20
2019,04,24,00,58,5.20
2019,04,24,00,59,5.20
2019,04,24,01,00,5.10
2019,04,24,01,01,5.10
2019,04,24,01,02,5.10
2019,04,24,01,03,5.10
2019,04,24,01,04,5.10
2019,04,24,01,05,5.10
2019,04,24,01,06,5.10
2019,04,24,01,07,5.00
2019,04,24,01,08,5.00
2019,04,24,01,09,5.00
2019,04,24,01,10,5.00
2019,04,24,01,11,5.00
2019,04,24,01,12,5.00
2019,04,24,01,13,4.90
2019,04,24,01,14,4.90
2019,04,24,01,15,4.90
2019,04,24,01,16,4.90
2019,04,24,01,17,4.90
2019,04,24,01,18,4.90
2019,04,24,01,19,4.90
2019,04,24,01,20,4.80
2019,04,24,01,21,4.80
2019,04,24,01,22,4.80
2019,04,24,01,23,4.80
2019,04,24,01,24,4.80
2019,04,24,01,25,4.70
2019,04,24,01,26,4.70
2019,04,24,01,27,4.70
2019,04,24,01,28,4.60
2019,04,24,01,29,4.60
2019,04,24,01,30,4.50
2019,04,24,01,31,4.50
2019,04,24,01,32,4.50
2019,04,24,01,33,4.40
2019,04,24,01,34,4.40
2019,04,24,01,35,4.40
2019,04,24,01,36,4.40
2019,04,24,01,37,4.30
2019,04,24,01,38,4.30
2019,04,24,01,39,4.30
2019,04,24,01,40,4.30
2019,04,24,01,41,4.30
2019,04,24,01,42,4.30
2019,04,24,01,43,4.30
2019,04,24,01,44,4.20
2019,04,24,01,45,4.20
2019,04,24,01,46,4.20
2019,04,24,01,47,4.20
2019,04,24,01,48,4.20
2019,04,24,01,49,4.10
2019,04,24,01,50,4.10
2019,04,24,01,51,4.10
2019,04,24,01,52,4.10
2019,04,24,01,53,4.10
2019,04,24,01,54,4.10
2019,04,24,01,55,4.10
2019,04,24,01,56,4.10
2019,04,24,01,57,4.10
2019,04,24,01,58,4.10
2019,04,24,01,59,4.10
2019,04,24,02,00,4.10
2019,04,24,02,01,4.00
2019,04,24,02,02,4.00
2019,04,24,02,03,3.90
2019,04,24,02,04,3.90
2019,04,24,02,05,3.90
2019,04,24,02,06,3.80
2019,04,24,02,07,3.80
2019,04,24,02,08,3.80
2019,04,24,02,09,3.70
2019,04,24,02,10,3.70
2019,04,24,02,11,3.70
2019,04,24,02,12,3.60
2019,04,24,02,13,3.60
2019,04,24,02,14,3.60
2019,04,24,02,15,3.50
2019,04,24,02,16,3.50
2019,04,24,02,17,3.50
2019,04,24,02,18,3.50
2019,04,24,02,19,3.40
2019,04,24,02,20,3.40
2019,04,24,02,21,3.40
2019,04,24,02,22,3.40
2019,04,24,02,23,3.50
2019,04,24,02,24,3.50
2019,04,24,02,25,3.50
2019,04,24,02,26,3.60
2019,04,24,02,27,3.60
2019,04,24,02,28,3.60
2019,04,24,02,29,3.60
2019,04,24,02,30,3.60
2019,04,24,02,31,3.60
2019,04,24,02,32,3.60
2019,04,24,02,33,3.60
2019,04,24,02,34,3.60
2019,04,24,02,35,3.60
2019,04,24,02,36,3.50
2019,04,24,02,37,3.50
2019,04,24,02,38,3.50
2019,04,24,02,39,3.40
2019,04,24,02,40,3.40
2019,04,24,02,41,3.40
2019,04,24,02,42,3.40
2019,04,24,02,43,3.40
2019,04,24,02,44,3.40
2019,04,24,02,45,3.50
2019,04,24,02,46,3.50
2019,04,24,02,47,3.40
2019,04,24,02,48,3.40
2019,04,24,02,49,3.40
2019,04,24,02,50,3.30
2019,04,24,02,51,3.30
2019,04,24,02,52,3.30
2019,04,24,02,53,3.30
2019,04,24,02,54,3.30
2019,04,24,02,55,3.30
2019,04,24,02,56,3.30
2019,04,24,02,57,3.30
2019,04,24,02,58,3.30
2019,04,24,02,59,3.30
2019,04,24,03,00,3.30
2019,04,24,03,01,3.30
2019,04,24,03,02,3.30
2019,04,24,03,03,3.30
2019,04,24,03,04,3.30
2019,04,24,03,05,3.30
2019,04,24,03,06,3.30
2019,04,24,03,07,3.30
2019,04,24,03,08,3.30
2019,04,24,03,09,3.30
2019,04,24,03,10,3.40
2019,04,24,03,11,3.40
2019,04,24,03,12,3.50
2019,04,24,03,13,3.50
2019,04,24,03,14,3.50
2019,04,24,03,15,3.50
2019,04,24,03,16,3.50
2019,04,24,03,17,3.60
2019,04,24,03,18,3.60
2019,04,24,03,19,3.70
2019,04,24,03,20,3.70
2019,04,24,03,21,3.70
2019,04,24,03,22,3.70
2019,04,24,03,23,3.70
2019,04,24,03,24,3.80
2019,04,24,03,25,3.80
2019,04,24,03,26,3.80
2019,04,24,03,27,3.80
2019,04,24,03,28,3.70
2019,04,24,03,29,3.70
2019,04,24,03,30,3.70
2019,04,24,03,31,3.70
2019,04,24,03,32,3.70
2019,04,24,03,33,3.70
2019,04,24,03,34,3.70
2019,04,24,03,35,3.70
2019,04,24,03,36,3.70
2019,04,24,03,37,3.70
2019,04,24,03,38,3.70
2019,04,24,03,39,3.70
2019,04,24,03,40,3.60
2019,04,24,03,41,3.60
2019,04,24,03,42,3.60
2019,04,24,03,43,3.60
2019,04,24,03,44,3.60
2019,04,24,03,45,3.60
2019,04,24,03,46,3.60
2019,04,24,03,47,3.60
2019,04,24,03,48,3.60
2019,04,24,03,49,3.50
2019,04,24,03,50,3.50
2019,04,24,03,51,3.50
2019,04,24,03,52,3.50
2019,04,24,03,53,3.40
2019,04,24,03,54,3.40
2019,04,24,03,55,3.40
2019,04,24,03,56,3.40
2019,04,24,03,57,3.40
2019,04,24,03,58,3.40
2019,04,24,03,59,3.40
2019,04,24,04,00,3.40
2019,04,24,04,01,3.40
2019,04,24,04,02,3.40
2019,04,24,04,03,3.40
2019,04,24,04,04,3.40
2019,04,24,04,05,3.40
2019,04,24,04,06,3.40
2019,04,24,04,07,3.40
2019,04,24,04,08,3.40
2019,04,24,04,09,3.40
2019,04,24,04,10,3.40
2019,04,24,04,11,3.40
2019,04,24,04,12,3.40
2019,04,24,04,13,3.40
2019,04,24,04,14,3.30
2019,04,24,04,15,3.30
2019,04,24,04,16,3.30
2019,04,24,04,17,3.30
2019,04,24,04,18,3.30
2019,04,24,04,19,3.30
2019,04,24,04,20,3.30
2019,04,24,04,21,3.40
2019,04,24,04,22,3.40
2019,04,24,04,23,3.40
2019,04,24,04,24,3.50
2019,04,24,04,25,3.60
2019,04,24,04,26,3.60
2019,04,24,04,27,3.70
2019,04,24,04,28,3.70
2019,04,24,04,29,3.70
2019,04,24,04,30,3.70
2019,04,24,04,31,3.70
2019,04,24,04,32,3.70
2019,04,24,04,33,3.70
2019,04,24,04,34,3.70
2019,04,24,04,35,3.70
2019,04,24,04,36,3.70
2019,04,24,04,37,3.60
2019,04,24,04,38,3.60
2019,04,24,04,39,3.50
2019,04,24,04,40,3.50
2019,04,24,04,41,3.40
2019,04,24,04,42,3.40
2019,04,24,04,43,3.40
2019,04,24,04,44,3.30
2019,04,24,04,45,3.30
2019,04,24,04,46,3.40
2019,04,24,04,47,3.30
2019,04,24,04,48,3.40
2019,04,24,04,49,3.40
2019,04,24,04,50,3.40
2019,04,24,04,51,3.40
2019,04,24,04,52,3.40
2019,04,24,04,53,3.30
2019,04,24,04,54,3.30
2019,04,24,04,55,3.20
2019,04,24,04,56,3.20
2019,04,24,04,57,3.20
2019,04,24,04,58,3.20
2019,04,24,04,59,3.10
2019,04,24,05,00,3.10
2019,04,24,05,01,3.10
2019,04,24,05,02,3.10
2019,04,24,05,03,3.00
2019,04,24,05,04,2.90
2019,04,24,05,05,2.80
2019,04,24,05,06,2.80
2019,04,24,05,07,2.80
2019,04,24,05,08,2.80
2019,04,24,05,09,2.70
2019,04,24,05,10,2.70
2019,04,24,05,11,2.60
2019,04,24,05,12,2.60
2019,04,24,05,13,2.60
2019,04,24,05,14,2.60
2019,04,24,05,15,2.60
2019,04,24,05,16,2.50
2019,04,24,05,17,2.50
2019,04,24,05,18,2.50
2019,04,24,05,19,2.40
2019,04,24,05,20,2.40
2019,04,24,05,21,2.50
2019,04,24,05,22,2.50
2019,04,24,05,23,2.60
2019,04,24,05,24,2.70
2019,04,24,05,25,2.70
2019,04,24,05,26,2.70
2019,04,24,05,27,2.70
2019,04,24,05,28,2.60
2019,04,24,05,29,2.60
2019,04,24,05,30,2.60
2019,04,24,05,31,2.60
2019,04,24,05,32,2.60
2019,04,24,05,33,2.60
2019,04,24,05,34,2.50
2019,04,24,05,35,2.50
2019,04,24,05,36,2.50
2019,04,24,05,37,2.60
2019,04,24,05,38,2.70
2019,04,24,05,39,2.60
2019,04,24,05,40,2.60
2019,04,24,05,41,2.60
2019,04,24,05,42,2.60
2019,04,24,05,43,2.60
2019,04,24,05,44,2.50
2019,04,24,05,45,2.50
2019,04,24,05,46,2.50
2019,04,24,05,47,2.40
2019,04,24,05,48,2.50
2019,04,24,05,49,2.50
2019,04,24,05,50,2.50
2019,04,24,05,51,2.40
2019,04,24,05,52,2.40
2019,04,24,05,53,2.30
2019,04,24,05,54,2.30
2019,04,24,05,55,2.20
2019,04,24,05,56,2.20
2019,04,24,05,57,2.20
2019,04,24,05,58,2.20
2019,04,24,05,59,2.20
2019,04,24,06,00,2.10
2019,04,24,06,01,2.10
2019,04,24,06,02,2.10
2019,04,24,06,03,2.10
2019,04,24,06,04,2.10
2019,04,24,06,05,2.10
2019,04,24,06,06,2.10
2019,04,24,06,07,2.20
2019,04,24,06,08,2.20
2019,04,24,06,09,2.20
2019,04,24,06,10,2.20
2019,04,24,06,11,2.10
2019,04,24,06,12,2.10
2019,04,24,06,13,2.10
2019,04,24,06,14,2.10
2019,04,24,06,15,2.10
2019,04,24,06,16,2.10
2019,04,24,06,17,2.10
2019,04,24,06,18,2.10
2019,04,24,06,19,2.10
2019,04,24,06,20,2.10
2019,04,24,06,21,2.10
2019,04,24,06,22,2.10
2019,04,24,06,23,2.00
2019,04,24,06,24,2.00
2019,04,24,06,25,2.00
2019,04,24,06,26,1.90
2019,04,24,06,27,1.90
2019,04,24,06,28,1.90
2019,04,24,06,29,1.90
2019,04,24,06,30,2.00
2019,04,24,06,31,2.00
2019,04,24,06,32,2.00
2019,04,24,06,33,2.00
2019,04,24,06,34,2.00
2019,04,24,06,35,2.00
2019,04,24,06,36,2.00
2019,04,24,06,37,2.00
2019,04,24,06,38,2.00
2019,04,24,06,39,2.00
2019,04,24,06,40,2.00
2019,04,24,06,41,2.10
2019,04,24,06,42,2.10
2019,04,24,06,43,2.10
2019,04,24,06,44,2.10
2019,04,24,06,45,2.10
2019,04,24,06,46,2.10
2019,04,24,06,47,2.10
2019,04,24,06,48,2.10
2019,04,24,06,49,2.10
2019,04,24,06,50,2.10
2019,04,24,06,51,2.10
2019,04,24,06,52,2.20
2019,04,24,06,53,2.20
2019,04,24,06,54,2.30
2019,04,24,06,55,2.30
2019,04,24,06,56,2.30
2019,04,24,06,57,2.30
2019,04,24,06,58,2.40
2019,04,24,06,59,2.40
2019,04,24,07,00,2.40
2019,04,24,07,01,2.40
2019,04,24,07,02,2.40
2019,04,24,07,03,2.40
2019,04,24,07,04,2.40
2019,04,24,07,05,2.40
2019,04,24,07,06,2.40
2019,04,24,07,07,2.50
2019,04,24,07,08,2.50
2019,04,24,07,09,2.60
2019,04,24,07,10,2.70
2019,04,24,07,11,2.70
2019,04,24,07,12,2.80
2019,04,24,07,13,2.80
2019,04,24,07,14,2.80
2019,04,24,07,15,2.90
2019,04,24,07,16,3.00
2019,04,24,07,17,3.10
2019,04,24,07,18,3.10
2019,04,24,07,19,3.20
2019,04,24,07,20,3.20
2019,04,24,07,21,3.30
2019,04,24,07,22,3.40
2019,04,24,07,23,3.50
2019,04,24,07,24,3.60
2019,04,24,07,25,3.60
2019,04,24,07,26,3.70
2019,04,24,07,27,3.80
2019,04,24,07,28,3.90
2019,04,24,07,29,4.00
2019,04,24,07,30,4.00
2019,04,24,07,31,4.10
2019,04,24,07,32,4.20
2019,04,24,07,33,4.20
2019,04,24,07,34,4.30
2019,04,24,07,35,4.30
2019,04,24,07,36,4.30
2019,04,24,07,37,4.40
2019,04,24,07,38,4.50
2019,04,24,07,39,4.60
2019,04,24,07,40,4.70
2019,04,24,07,41,4.80
2019,04,24,07,42,4.80
2019,04,24,07,43,4.90
2019,04,24,07,44,4.90
2019,04,24,07,45,4.90
2019,04,24,07,46,5.00
2019,04,24,07,47,5.00
2019,04,24,07,48,5.10
2019,04,24,07,49,5.10
2019,04,24,07,50,5.20
2019,04,24,07,51,5.30
2019,04,24,07,52,5.40
2019,04,24,07,53,5.50
2019,04,24,07,54,5.70
2019,04,24,07,55,5.80
2019,04,24,07,56,5.90
2019,04,24,07,57,6.00
2019,04,24,07,58,6.20
2019,04,24,07,59,6.20
2019,04,24,08,00,6.20
2019,04,24,08,01,6.30
2019,04,24,08,02,6.30
2019,04,24,08,03,6.30
2019,04,24,08,04,6.40
2019,04,24,08,05,6.50
2019,04,24,08,06,6.60
2019,04,24,08,07,6.70
2019,04,24,08,08,6.70
2019,04,24,08,09,6.70
2019,04,24,08,10,6.70
2019,04,24,08,11,6.70
2019,04,24,08,12,6.70
2019,04,24,08,13,6.70
2019,04,24,08,14,6.80
2019,04,24,08,15,6.80
2019,04,24,08,16,6.80
2019,04,24,08,17,6.80
2019,04,24,08,18,6.80
2019,04,24,08,19,6.90
2019,04,24,08,20,6.90
2019,04,24,08,21,6.90
2019,04,24,08,22,7.00
2019,04,24,08,23,7.00
2019,04,24,08,24,7.00
2019,04,24,08,25,7.10
2019,04,24,08,26,7.10
2019,04,24,08,27,7.10
2019,04,24,08,28,7.20
2019,04,24,08,29,7.20
2019,04,24,08,30,7.20
2019,04,24,08,31,7.10
2019,04,24,08,32,7.10
2019,04,24,08,33,7.10
2019,04,24,08,34,7.10
2019,04,24,08,35,7.20
2019,04,24,08,36,7.20
2019,04,24,08,37,7.20
2019,04,24,08,38,7.20
2019,04,24,08,39,7.20
2019,04,24,08,40,7.30
2019,04,24,08,41,7.30
2019,04,24,08,42,7.40
2019,04,24,08,43,7.50
2019,04,24,08,44,7.50
2019,04,24,08,45,7.60
2019,04,24,08,46,7.60
2019,04,24,08,47,7.50
2019,04,24,08,48,7.40
2019,04,24,08,49,7.40
2019,04,24,08,50,7.50
2019,04,24,08,51,7.50
2019,04,24,08,52,7.50
2019,04,24,08,53,7.60
2019,04,24,08,54,7.60
2019,04,24,08,55,7.70
2019,04,24,08,56,7.70
2019,04,24,08,57,7.80
2019,04,24,08,58,7.90
2019,04,24,08,59,7.90
2019,04,24,09,00,8.00
2019,04,24,09,01,8.10
2019,04,24,09,02,8.10
2019,04,24,09,03,8.20
2019,04,24,09,04,8.20
2019,04,24,09,05,8.30
2019,04,24,09,06,8.40
2019,04,24,09,07,8.40
2019,04,24,09,08,8.50
2019,04,24,09,09,8.50
2019,04,24,09,10,8.50
2019,04,24,09,11,8.60
2019,04,24,09,12,8.60
2019,04,24,09,13,8.70
2019,04,24,09,14,8.70
2019,04,24,09,15,8.70
2019,04,24,09,16,8.60
2019,04,24,09,17,8.50
2019,04,24,09,18,8.50
2019,04,24,09,19,8.40
2019,04,24,09,20,8.40
2019,04,24,09,21,8.40
2019,04,24,09,22,8.50
2019,04,24,09,23,8.50
2019,04,24,09,24,8.50
2019,04,24,09,25,8.60
2019,04,24,09,26,8.60
2019,04,24,09,27,8.60
2019,04,24,09,28,8.60
2019,04,24,09,29,8.60
2019,04,24,09,30,8.60
2019,04,24,09,31,8.60
2019,04,24,09,32,8.60
2019,04,24,09,33,8.70
2019,04,24,09,34,8.70
2019,04,24,09,35,8.80
2019,04,24,09,36,8.90
2019,04,24,09,37,8.90
2019,04,24,09,38,8.90
2019,04,24,09,39,9.00
2019,04,24,09,40,9.00
2019,04,24,09,41,9.10
2019,04,24,09,42,9.20
2019,04,24,09,43,9.20
2019,04,24,09,44,9.20
2019,04,24,09,45,9.20
2019,04,24,09,46,9.20
2019,04,24,09,47,9.30
2019,04,24,09,48,9.30
2019,04,24,09,49,9.40
2019,04,24,09,50,9.60
2019,04,24,09,51,9.70
2019,04,24,09,52,9.80
2019,04,24,09,53,9.80
2019,04,24,09,54,9.70
2019,04,24,09,55,9.60
2019,04,24,09,56,9.50
2019,04,24,09,57,9.40
2019,04,24,09,58,9.40
2019,04,24,09,59,9.40
2019,04,24,10,00,9.40
2019,04,24,10,01,9.40
2019,04,24,10,02,9.40
2019,04,24,10,03,9.50
2019,04,24,10,04,9.60
2019,04,24,10,05,9.70
2019,04,24,10,06,9.80
2019,04,24,10,07,9.80
2019,04,24,10,08,9.90
2019,04,24,10,09,9.90
2019,04,24,10,10,10.00
2019,04,24,10,11,10.00
2019,04,24,10,12,10.10
2019,04,24,10,13,10.10
2019,04,24,10,14,10.20
2019,04,24,10,15,10.20
2019,04,24,10,16,10.20
2019,04,24,10,17,10.10
2019,04,24,10,18,10.10
2019,04,24,10,19,10.10
2019,04,24,10,20,10.10
2019,04,24,10,21,10.10
2019,04,24,10,22,10.10
2019,04,24,10,23,10.20
2019,04,24,10,24,10.20
2019,04,24,10,25,10.30
2019,04,24,10,26,10.30
2019,04,24,10,27,10.20
2019,04,24,10,28,10.20
2019,04,24,10,29,10.20
2019,04,24,10,30,10.20
2019,04,24,10,31,10.20
2019,04,24,10,32,10.20
2019,04,24,10,33,10.20
2019,04,24,10,34,10.30
2019,04,24,10,35,10.40
2019,04,24,10,36,10.40
2019,04,24,10,37,10.40
2019,04,24,10,38,10.50
2019,04,24,10,39,10.60
2019,04,24,10,40,10.60
2019,04,24,10,41,10.60
2019,04,24,10,42,10.60
2019,04,24,10,43,10.50
2019,04,24,10,44,10.40
2019,04,24,10,45,10.40
2019,04,24,10,46,10.50
2019,04,24,10,47,10.50
2019,04,24,10,48,10.60
2019,04,24,10,49,10.60
2019,04,24,10,50,10.70
2019,04,24,10,51,10.80
2019,04,24,10,52,10.90
2019,04,24,10,53,10.90
2019,04,24,10,54,11.00
2019,04,24,10,55,11.00
2019,04,24,10,56,11.10
2019,04,24,10,57,11.20
2019,04,24,10,58,11.20
2019,04,24,10,59,11.20
2019,04,24,11,00,11.20
2019,04,24,11,01,11.20
2019,04,24,11,02,11.20
2019,04,24,11,03,11.20
2019,04,24,11,04,11.20
2019,04,24,11,05,11.10
2019,04,24,11,06,11.10
2019,04,24,11,07,11.10
2019,04,24,11,08,11.00
2019,04,24,11,09,11.00
2019,04,24,11,10,11.00
2019,04,24,11,11,11.10
2019,04,24,11,12,11.10
2019,04,24,11,13,11.10
2019,04,24,11,14,11.10
2019,04,24,11,15,11.10
2019,04,24,11,16,11.10
2019,04,24,11,17,11.00
2019,04,24,11,18,11.00
2019,04,24,11,19,10.90
2019,04,24,11,20,10.90
2019,04,24,11,21,10.90
2019,04,24,11,22,10.80
2019,04,24,11,23,10.70
2019,04,24,11,24,10.70
2019,04,24,11,25,10.70
2019,04,24,11,26,10.70
2019,04,24,11,27,10.60
2019,04,24,11,28,10.60
2019,04,24,11,29,10.60
2019,04,24,11,30,10.60
2019,04,24,11,31,10.70
2019,04,24,11,32,10.70
2019,04,24,11,33,10.70
2019,04,24,11,34,10.80
2019,04,24,11,35,10.80
2019,04,24,11,36,10.90
2019,04,24,11,37,11.00
2019,04,24,11,38,11.10
2019,04,24,11,39,11.20
2019,04,24,11,40,11.30
2019,04,24,11,41,11.30
2019,04,24,11,42,11.40
2019,04,24,11,43,11.40
2019,04,24,11,44,11.30
2019,04,24,11,45,11.30
2019,04,24,11,46,11.20
2019,04,24,11,47,11.20
2019,04,24,11,48,11.20
2019,04,24,11,49,11.20
2019,04,24,11,50,11.10
2019,04,24,11,51,11.10
2019,04,24,11,52,11.10
2019,04,24,11,53,11.20
2019,04,24,11,54,11.20
2019,04,24,11,55,11.20
2019,04,24,11,56,11.30
2019,04,24,11,57,11.30
2019,04,24,11,58,11.40
2019,04,24,11,59,11.40
2019,04,24,12,00,11.30
2019,04,24,12,01,11.30
2019,04,24,12,02,11.30
2019,04,24,12,03,11.20
2019,04,24,12,04,11.20
2019,04,24,12,05,11.20
2019,04,24,12,06,11.20
2019,04,24,12,07,11.20
2019,04,24,12,08,11.20
2019,04,24,12,09,11.30
2019,04,24,12,10,11.30
2019,04,24,12,11,11.40
2019,04,24,12,12,11.50
2019,04,24,12,13,11.50
2019,04,24,12,14,11.50
2019,04,24,12,15,11.50
2019,04,24,12,16,11.50
2019,04,24,12,17,11.50
2019,04,24,12,18,11.50
2019,04,24,12,19,11.50
2019,04,24,12,20,11.60
2019,04,24,12,21,11.70
2019,04,24,12,22,11.70
2019,04,24,12,23,11.70
2019,04,24,12,24,11.70
2019,04,24,12,25,11.70
2019,04,24,12,26,11.60
2019,04,24,12,27,11.50
2019,04,24,12,28,11.40
2019,04,24,12,29,11.30
2019,04,24,12,30,11.30
2019,04,24,12,31,11.20
2019,04,24,12,32,11.20
2019,04,24,12,33,11.10
2019,04,24,12,34,11.10
2019,04,24,12,35,11.10
2019,04,24,12,36,11.10
2019,04,24,12,37,11.20
2019,04,24,12,38,11.20
2019,04,24,12,39,11.20
2019,04,24,12,40,11.20
2019,04,24,12,41,11.20
2019,04,24,12,42,11.30
2019,04,24,12,43,11.40
2019,04,24,12,44,11.50
2019,04,24,12,45,11.50
2019,04,24,12,46,11.60
2019,04,24,12,47,11.60
2019,04,24,12,48,11.70
2019,04,24,12,49,11.80
2019,04,24,12,50,11.90
2019,04,24,12,51,12.00
2019,04,24,12,52,12.00
2019,04,24,12,53,12.10
2019,04,24,12,54,12.00
2019,04,24,12,55,12.00
2019,04,24,12,56,11.90
2019,04,24,12,57,11.90
2019,04,24,12,58,11.90
2019,04,24,12,59,12.00
2019,04,24,13,00,12.00
2019,04,24,13,01,12.00
2019,04,24,13,02,12.10
2019,04,24,13,03,12.10
2019,04,24,13,04,12.20
2019,04,24,13,05,12.20
2019,04,24,13,06,12.20
2019,04,24,13,07,12.30
2019,04,24,13,08,12.30
2019,04,24,13,09,12.30
2019,04,24,13,10,12.30
2019,04,24,13,11,12.30
2019,04,24,13,12,12.30
2019,04,24,13,13,12.40
2019,04,24,13,14,12.40
2019,04,24,13,15,12.40
2019,04,24,13,16,12.40
2019,04,24,13,17,12.30
2019,04,24,13,18,12.30
2019,04,24,13,19,12.40
2019,04,24,13,20,12.40
2019,04,24,13,21,12.40
2019,04,24,13,22,12.40
2019,04,24,13,23,12.40
2019,04,24,13,24,12.50
2019,04,24,13,25,12.50
2019,04,24,13,26,12.60
2019,04,24,13,27,12.60
2019,04,24,13,28,12.60
2019,04,24,13,29,12.60
2019,04,24,13,30,12.60
2019,04,24,13,31,12.70
2019,04,24,13,32,12.60
2019,04,24,13,33,12.60
2019,04,24,13,34,12.60
2019,04,24,13,35,12.60
2019,04,24,13,36,12.70
2019,04,24,13,37,12.80
2019,04,24,13,38,12.80
2019,04,24,13,39,12.80
2019,04,24,13,40,12.80
2019,04,24,13,41,12.80
2019,04,24,13,42,12.90
2019,04,24,13,43,12.90
2019,04,24,13,44,13.00
2019,04,24,13,45,13.10
2019,04,24,13,46,13.10
2019,04,24,13,47,13.10
2019,04,24,13,48,13.00
2019,04,24,13,49,13.00
2019,04,24,13,50,13.00
2019,04,24,13,51,13.00
2019,04,24,13,52,13.00
2019,04,24,13,53,13.00
2019,04,24,13,54,13.10
2019,04,24,13,55,13.10
2019,04,24,13,56,13.10
2019,04,24,13,57,13.10
2019,04,24,13,58,13.10
2019,04,24,13,59,13.10
2019,04,24,14,00,13.00
2019,04,24,14,01,12.80
2019,04,24,14,02,12.70
2019,04,24,14,03,12.70
2019,04,24,14,04,12.70
2019,04,24,14,05,12.70
2019,04,24,14,06,12.70
2019,04,24,14,07,12.70
2019,04,24,14,08,12.70
2019,04,24,14,09,12.70
2019,04,24,14,10,12.80
2019,04,24,14,11,12.90
2019,04,24,14,12,12.90
2019,04,24,14,13,13.00
2019,04,24,14,14,13.00
2019,04,24,14,15,13.00
2019,04,24,14,16,13.00
2019,04,24,14,17,12.90
2019,04,24,14,18,12.80
2019,04,24,14,19,12.80
2019,04,24,14,20,12.90
2019,04,24,14,21,13.00
2019,04,24,14,22,13.00
2019,04,24,14,23,13.10
2019,04,24,14,24,13.10
2019,04,24,14,25,13.10
2019,04,24,14,26,13.10
2019,04,24,14,27,13.10
2019,04,24,14,28,13.10
2019,04,24,14,29,13.00
2019,04,24,14,30,13.10
2019,04,24,14,31,13.10
2019,04,24,14,32,13.10
2019,04,24,14,33,13.00
2019,04,24,14,34,12.90
2019,04,24,14,35,13.00
2019,04,24,14,36,13.00
2019,04,24,14,37,13.10
2019,04,24,14,38,13.10
2019,04,24,14,39,13.10
2019,04,24,14,40,13.20
2019,04,24,14,41,13.20
2019,04,24,14,42,13.20
2019,04,24,14,43,13.20
2019,04,24,14,44,13.30
2019,04,24,14,45,13.40
2019,04,24,14,46,13.40
2019,04,24,14,47,13.50
2019,04,24,14,48,13.40
2019,04,24,14,49,13.30
2019,04,24,14,50,13.30
2019,04,24,14,51,13.20
2019,04,24,14,52,13.20
2019,04,24,14,53,13.30
2019,04,24,14,54,13.40
2019,04,24,14,55,13.40
2019,04,24,14,56,13.50
2019,04,24,14,57,13.50
2019,04,24,14,58,13.50
2019,04,24,14,59,13.40
2019,04,24,15,00,13.40
2019,04,24,15,01,13.30
2019,04,24,15,02,13.20
2019,04,24,15,03,13.10
2019,04,24,15,04,13.10
2019,04,24,15,05,13.20
2019,04,24,15,06,13.20
2019,04,24,15,07,13.30
2019,04,24,15,08,13.30
2019,04,24,15,09,13.30
2019,04,24,15,10,13.30
2019,04,24,15,11,13.30
2019,04,24,15,12,13.40
2019,04,24,15,13,13.50
2019,04,24,15,14,13.60
2019,04,24,15,15,13.60
2019,04,24,15,16,13.50
2019,04,24,15,17,13.50
2019,04,24,15,18,13.50
2019,04,24,15,19,13.50
2019,04,24,15,20,13.50
2019,04,24,15,21,13.50
2019,04,24,15,22,13.60
2019,04,24,15,23,13.60
2019,04,24,15,24,13.70
2019,04,24,15,25,13.70
2019,04,24,15,26,13.70
2019,04,24,15,27,13.80
2019,04,24,15,28,13.80
2019,04,24,15,29,13.80
2019,04,24,15,30,13.80
2019,04,24,15,31,13.90
2019,04,24,15,32,13.90
2019,04,24,15,33,14.00
2019,04,24,15,34,13.90
2019,04,24,15,35,13.90
2019,04,24,15,36,13.90
2019,04,24,15,37,13.80
2019,04,24,15,38,13.70
2019,04,24,15,39,13.70
2019,04,24,15,40,13.70
2019,04,24,15,41,13.80
2019,04,24,15,42,13.80
2019,04,24,15,43,13.90
2019,04,24,15,44,14.00
2019,04,24,15,45,14.10
2019,04,24,15,46,14.10
2019,04,24,15,47,14.10
2019,04,24,15,48,14.10
2019,04,24,15,49,14.00
2019,04,24,15,50,13.90
2019,04,24,15,51,13.80
2019,04,24,15,52,13.80
2019,04,24,15,53,13.70
2019,04,24,15,54,13.70
2019,04,24,15,55,13.70
2019,04,24,15,56,13.70
2019,04,24,15,57,13.80
2019,04,24,15,58,13.90
2019,04,24,15,59,13.90
2019,04,24,16,00,13.90
2019,04,24,16,01,13.90
2019,04,24,16,02,13.90
2019,04,24,16,03,13.90
2019,04,24,16,04,14.00
2019,04,24,16,05,14.10
2019,04,24,16,06,14.10
2019,04,24,16,07,14.20
2019,04,24,16,08,14.30
2019,04,24,16,09,14.30
2019,04,24,16,10,14.30
2019,04,24,16,11,14.30
2019,04,24,16,12,14.30
2019,04,24,16,13,14.30
2019,04,24,16,14,14.40
2019,04,24,16,15,14.40
2019,04,24,16,16,14.40
2019,04,24,16,17,14.40
2019,04,24,16,18,14.40
2019,04,24,16,19,14.30
2019,04,24,16,20,14.30
2019,04,24,16,21,14.20
2019,04,24,16,22,14.10
2019,04,24,16,23,14.10
2019,04,24,16,24,14.00
2019,04,24,16,25,13.90
2019,04,24,16,26,13.90
2019,04,24,16,27,13.90
2019,04,24,16,28,13.90
2019,04,24,16,29,13.80
2019,04,24,16,30,13.80
2019,04,24,16,31,13.90
2019,04,24,16,32,13.90
2019,04,24,16,33,14.00
2019,04,24,16,34,14.00
2019,04,24,16,35,14.10
2019,04,24,16,36,14.10
2019,04,24,16,37,14.10
2019,04,24,16,38,14.10
2019,04,24,16,39,14.10
2019,04,24,16,40,14.10
2019,04,24,16,41,14.10
2019,04,24,16,42,14.10
2019,04,24,16,43,14.20
2019,04,24,16,44,14.20
2019,04,24,16,45,14.10
2019,04,24,16,46,14.10
2019,04,24,16,47,14.20
2019,04,24,16,48,14.20
2019,04,24,16,49,14.30
2019,04,24,16,50,14.30
2019,04,24,16,51,14.20
2019,04,24,16,52,14.20
2019,04,24,16,53,14.20
2019,04,24,16,54,14.20
2019,04,24,16,55,14.20
2019,04,24,16,56,14.20
2019,04,24,16,57,14.10
2019,04,24,16,58,14.10
2019,04,24,16,59,14.20
2019,04,24,17,00,14.20
2019,04,24,17,01,14.10
2019,04,24,17,02,14.10
2019,04,24,17,03,14.10
2019,04,24,17,04,14.10
2019,04,24,17,05,14.10
2019,04,24,17,06,14.10
2019,04,24,17,07,14.10
2019,04,24,17,08,14.20
2019,04,24,17,09,14.20
2019,04,24,17,10,14.20
2019,04,24,17,11,14.20
2019,04,24,17,12,14.20
2019,04,24,17,13,14.10
2019,04,24,17,14,14.10
2019,04,24,17,15,14.10
2019,04,24,17,16,14.10
2019,04,24,17,17,14.10
2019,04,24,17,18,14.10
2019,04,24,17,19,14.10
2019,04,24,17,20,14.10
2019,04,24,17,21,14.10
2019,04,24,17,22,14.10
2019,04,24,17,23,14.10
2019,04,24,17,24,14.10
2019,04,24,17,25,14.10
2019,04,24,17,26,14.10
2019,04,24,17,27,14.10
2019,04,24,17,28,14.20
2019,04,24,17,29,14.20
2019,04,24,17,30,14.20
2019,04,24,17,31,14.30
2019,04,24,17,32,14.30
2019,04,24,17,33,14.30
2019,04,24,17,34,14.30
2019,04,24,17,35,14.30
2019,04,24,17,36,14.30
2019,04,24,17,37,14.30
2019,04,24,17,38,14.30
2019,04,24,17,39,14.30
2019,04,24,17,40,14.30
2019,04,24,17,41,14.30
2019,04,24,17,42,14.40
2019,04,24,17,43,14.40
2019,04,24,17,44,14.40
2019,04,24,17,45,14.30